Pontiac, MI

1:18 AM EDT on October 24, 2017 (GMT -0400)
Oakland County International

Weather History for KPTK - July, 2012

Change the Weather History Date:

Sunday, July 1, 2012

  Actual Average Record
Temperature  
Mean Temperature 77 °F -  
Max Temperature 91 °F 80 °F 93 °F (2002)
Min Temperature 64 °F 59 °F 51 °F (2001)
Cooling Degree Days 12    
Growing Degree Days 27 (Base 50)    
Moisture  
Dew Point 58 °F    
Average Humidity 52    
Maximum Humidity 84    
Minimum Humidity 31    
Precipitation  
Precipitation 0.00 in - - ()
Sea Level Pressure  
Sea Level Pressure 29.92 in    
Wind  
Wind Speed 6 mph (NNE)    
Max Wind Speed 14 mph    
Max Gust Speed 17 mph    
Visibility 10 miles    
Events Rain    
Averages and records for this station are not official NWS values.
T = Trace of Precipitation, MM = Missing Value Source: NWS Daily Summary

Daily Weather History Graph

Daily Weather History Graph

Search for Another Location

Airport or City:

Trip Planner

Search our weather history database for the weather conditions in past years. The results will help you decide how hot, cold, wet, or windy it might be!

Date:

Astronomy

Jul. 01, 2012 Rise Set
Actual Time 5:59 AM EDT 9:15 PM EDT
Civil Twilight 5:24 AM EDT 9:50 PM EDT
Nautical Twilight 4:39 AM EDT 10:35 PM EDT
Astronomical Twilight 3:45 AM EDT 11:29 PM EDT
Moon 7:16 PM EDT (7/1) 3:46 AM EDT (7/1)
Length of Visible Light 16h 25m
Length of Day
15h 15m
Waxing Gibbous, 94% of the Moon is Illuminated
Jul 1
Waxing Gibbous
Jul 3
Full
Jul 10
Last Quarter
Jul 19
New
Jul 26
First Quarter

Hourly Weather History & Observations

Time (EDT) Temp. Heat Index Dew Point Humidity Pressure Visibility Wind Dir Wind Speed Gust Speed Precip Events Conditions
12:53 AM 75.0 °F - 61.0 °F 62% 29.83 in 10.0 mi NNW 9.2 mph - N/A   Clear
1:53 AM 72.0 °F - 57.0 °F 59% 29.84 in 10.0 mi ENE 3.5 mph - N/A   Clear
2:53 AM 66.9 °F - 57.0 °F 70% 29.86 in 10.0 mi Calm Calm - N/A   Clear
3:53 AM 64.9 °F - 57.0 °F 75% 29.87 in 10.0 mi Calm Calm - N/A   Clear
4:53 AM 66.9 °F - 59.0 °F 76% 29.88 in 10.0 mi Calm Calm - N/A   Clear
5:53 AM 66.0 °F - 61.0 °F 84% 29.91 in 10.0 mi Calm Calm - N/A   Partly Cloudy
6:53 AM 66.0 °F - 61.0 °F 84% 29.91 in 10.0 mi Calm Calm - N/A   Partly Cloudy
7:53 AM 71.6 °F - 60.8 °F 69% 29.95 in 10.0 mi Calm Calm - N/A   Partly Cloudy
8:53 AM 75.0 °F - 57.0 °F 53% 29.94 in 10.0 mi SE 6.9 mph - N/A   Partly Cloudy
9:53 AM 77.0 °F - 55.9 °F 48% 29.95 in 10.0 mi ESE 5.8 mph - N/A   Partly Cloudy
10:53 AM 79.0 °F - 57.0 °F 47% 29.95 in 10.0 mi SSE 8.1 mph - N/A   Scattered Clouds
11:53 AM 84.0 °F 83.0 °F 55.9 °F 38% 29.96 in 10.0 mi SW 5.8 mph - N/A   Mostly Cloudy
12:53 PM 86.0 °F 84.7 °F 55.9 °F 36% 29.96 in 10.0 mi Variable 5.8 mph 17.3 mph N/A   Mostly Cloudy
1:53 PM 84.0 °F 83.3 °F 57.0 °F 40% 29.95 in 10.0 mi WSW 5.8 mph - 0.00 in Rain Light Rain
2:53 PM 84.9 °F 84.8 °F 60.1 °F 43% 29.94 in 10.0 mi West 10.4 mph - 0.00 in   Scattered Clouds
3:53 PM 89.1 °F 88.2 °F 59.0 °F 36% 29.92 in 10.0 mi NW 11.5 mph - N/A   Scattered Clouds
4:53 PM 90.0 °F 88.8 °F 57.9 °F 34% 29.91 in 10.0 mi NNW 12.7 mph - N/A   Scattered Clouds
5:53 PM 90.0 °F 88.1 °F 55.9 °F 31% 29.90 in 10.0 mi NW 9.2 mph - N/A   Partly Cloudy
6:53 PM 89.1 °F 87.1 °F 55.0 °F 31% 29.90 in 10.0 mi NW 10.4 mph - N/A   Partly Cloudy
7:53 PM 88.0 °F 85.9 °F 54.0 °F 31% 29.90 in 10.0 mi NNW 8.1 mph - N/A   Partly Cloudy
8:53 PM 82.9 °F 82.6 °F 57.9 °F 42% 29.91 in 10.0 mi ENE 13.8 mph - N/A   Partly Cloudy
9:53 PM 77.0 °F - 59.0 °F 54% 29.92 in 10.0 mi ENE 9.2 mph - N/A   Partly Cloudy
10:53 PM 75.9 °F - 57.9 °F 54% 29.95 in 10.0 mi ESE 6.9 mph - N/A   Partly Cloudy
11:53 PM 72.0 °F - 57.9 °F 61% 29.96 in 10.0 mi ENE 4.6 mph - N/A   Partly Cloudy